Retour au catalogue

STARLINK-3161

ActifCommunicationsVLEO
NORAD 49422·PAYLOAD·🇺🇸 United States

Lancé Nov 13, 2021 depuis Cape Canaveral Space Force Station

Loading…

Prochains Passages (prochaines 24 heures)

TLE

FraisSource: CelesTrak SupGP

Époque: Sep 14, 2026, 21:05 UTC

1 49422C 21104Q   26257.87895833 -.00006383  00000+0 -18263-3 0  2573
2 49422  53.1577  87.8726 0001257  83.3076 322.3592 15.35398629    19

Suivez STARLINK-3161 en temps réel avec AllMySat

Download on the App Store